Estación de Chanco INIA
Ultimos registro cada 15 minutos 73
| N° | Estación | Fecha / Hora | Temperatura | Humedad | Lluvia | Velocidad | Dirección | Radiación | Presion |
| 73 | Chanco INIA | 09-05-2026 18:00 | 14,4 | 69,8 | 0 | 0 | 0 | 8 | 1002 |
| 72 | Chanco INIA | 09-05-2026 17:45 | 17,1 | 64,5 | 0 | 0 | 0 | 28 | 1002 |
| 71 | Chanco INIA | 09-05-2026 17:30 | 18,1 | 43,2 | 0 | 0 | 0 | 69 | 1002 |
| 70 | Chanco INIA | 09-05-2026 17:15 | 18 | 50,8 | 0 | 0 | 0 | 116 | 1002 |
| 69 | Chanco INIA | 09-05-2026 17:00 | 17 | 53,3 | 0 | 0 | 0 | 155 | 1002 |
| 68 | Chanco INIA | 09-05-2026 16:45 | 17,5 | 56,8 | 0 | 0 | 0 | 194 | 1002 |
| 67 | Chanco INIA | 09-05-2026 16:30 | 18,2 | 50,4 | 0 | 0 | 0 | 232 | 1002 |
| 66 | Chanco INIA | 09-05-2026 16:15 | 18,2 | 47,5 | 0 | 0 | 0 | 270 | 1002 |
| 65 | Chanco INIA | 09-05-2026 16:00 | 18,2 | 48,5 | 0 | 0 | 0 | 308 | 1002 |
| 64 | Chanco INIA | 09-05-2026 15:45 | 17,7 | 49,7 | 0 | 0 | 0 | 344 | 1002 |
| 63 | Chanco INIA | 09-05-2026 15:30 | 17,9 | 54 | 0 | 0,8 | 239 | 376 | 1002 |
| 62 | Chanco INIA | 09-05-2026 15:15 | 18,2 | 54 | 0 | 1,1 | 246 | 408 | 1002 |
| 61 | Chanco INIA | 09-05-2026 15:00 | 18,5 | 48,6 | 0 | 0,8 | 262 | 438 | 1002 |
| 60 | Chanco INIA | 09-05-2026 14:45 | 18,2 | 45 | 0 | 0 | 226 | 466 | 1003 |
| 59 | Chanco INIA | 09-05-2026 14:30 | 17,8 | 47 | 0 | 0,7 | 247 | 490 | 1003 |
| 58 | Chanco INIA | 09-05-2026 14:15 | 17,3 | 48,6 | 0 | 0,8 | 246 | 510 | 1003 |
| 57 | Chanco INIA | 09-05-2026 14:00 | 17,1 | 51,3 | 0 | 1,7 | 248 | 528 | 1003 |
| 56 | Chanco INIA | 09-05-2026 13:45 | 16,6 | 49,8 | 0 | 2,1 | 246 | 543 | 1003 |
| 55 | Chanco INIA | 09-05-2026 13:30 | 16,5 | 50,2 | 0 | 1,6 | 240 | 556 | 1003 |
| 54 | Chanco INIA | 09-05-2026 13:15 | 16,6 | 49,9 | 0 | 0,9 | 270 | 563 | 1004 |
| 53 | Chanco INIA | 09-05-2026 13:00 | 16,1 | 52,1 | 0 | 1,9 | 260 | 568 | 1004 |
| 52 | Chanco INIA | 09-05-2026 12:45 | 17,6 | 51,7 | 0 | 1,2 | 215 | 571 | 1004 |
| 51 | Chanco INIA | 09-05-2026 12:30 | 17,9 | 32,7 | 0 | 2,6 | 161 | 570 | 1004 |
| 50 | Chanco INIA | 09-05-2026 12:15 | 17,9 | 31,6 | 0 | 1,8 | 166 | 564 | 1004 |
| 49 | Chanco INIA | 09-05-2026 12:00 | 17,4 | 33,1 | 0 | 1 | 153 | 555 | 1004 |
| 48 | Chanco INIA | 09-05-2026 11:45 | 16,8 | 32,5 | 0 | 2,6 | 152 | 542 | 1004 |
| 47 | Chanco INIA | 09-05-2026 11:30 | 16,4 | 35,4 | 0 | 2,1 | 146 | 525 | 1005 |
| 46 | Chanco INIA | 09-05-2026 11:15 | 15,8 | 37,5 | 0 | 0,9 | 160 | 505 | 1004 |
| 45 | Chanco INIA | 09-05-2026 11:00 | 15,2 | 37,8 | 0 | 2,9 | 146 | 482 | 1004 |
| 44 | Chanco INIA | 09-05-2026 10:45 | 14,8 | 37,6 | 0 | 3,6 | 153 | 457 | 1004 |
| 43 | Chanco INIA | 09-05-2026 10:30 | 14,7 | 38,6 | 0 | 2,6 | 171 | 428 | 1005 |
| 42 | Chanco INIA | 09-05-2026 10:15 | 14,8 | 41,2 | 0 | 0,5 | 190 | 397 | 1005 |
| 41 | Chanco INIA | 09-05-2026 10:00 | 14,1 | 39,8 | 0 | 0 | 0 | 364 | 1005 |
| 40 | Chanco INIA | 09-05-2026 09:45 | 14,5 | 44,1 | 0 | 0 | 0 | 330 | 1005 |
| 39 | Chanco INIA | 09-05-2026 09:30 | 13,6 | 38,6 | 0 | 0,1 | 91 | 292 | 1005 |
| 38 | Chanco INIA | 09-05-2026 09:15 | 12,5 | 43,1 | 0 | 1,4 | 108 | 252 | 1005 |
| 37 | Chanco INIA | 09-05-2026 09:00 | 11,5 | 45,6 | 0 | 2,7 | 129 | 212 | 1005 |
| 36 | Chanco INIA | 09-05-2026 08:45 | 10,8 | 49,9 | 0 | 2 | 132 | 172 | 1005 |
| 35 | Chanco INIA | 09-05-2026 08:30 | 10,5 | 48,9 | 0 | 1,2 | 146 | 129 | 1005 |
| 34 | Chanco INIA | 09-05-2026 08:15 | 10,4 | 48,7 | 0 | 1,2 | 158 | 90 | 1005 |
| 33 | Chanco INIA | 09-05-2026 08:00 | 9,2 | 48,6 | 0 | 0 | 0 | 33 | 1005 |
| 32 | Chanco INIA | 09-05-2026 07:45 | 10,1 | 52,1 | 0 | 1,7 | 149 | 5 | 1005 |
| 31 | Chanco INIA | 09-05-2026 07:30 | 10,7 | 47,5 | 0 | 2,7 | 153 | 1 | 1005 |
| 30 | Chanco INIA | 09-05-2026 07:15 | 11,3 | 45,8 | 0 | 1,5 | 152 | 0 | 1005 |
| 29 | Chanco INIA | 09-05-2026 07:00 | 11,4 | 42,9 | 0 | 1,5 | 177 | 0 | 1005 |
| 28 | Chanco INIA | 09-05-2026 06:45 | 11,5 | 45,1 | 0 | 0,7 | 158 | 0 | 1005 |
| 27 | Chanco INIA | 09-05-2026 06:30 | 11,8 | 43 | 0 | 3 | 151 | 0 | 1005 |
| 26 | Chanco INIA | 09-05-2026 06:15 | 11,6 | 44,2 | 0 | 3,3 | 147 | 0 | 1005 |
| 25 | Chanco INIA | 09-05-2026 06:00 | 10,8 | 47,1 | 0 | 1,3 | 162 | 0 | 1006 |
| 24 | Chanco INIA | 09-05-2026 05:45 | 10,6 | 48,4 | 0 | 0 | 0 | 0 | 1006 |
| 23 | Chanco INIA | 09-05-2026 05:30 | 10,8 | 48,3 | 0 | 0,3 | 153 | 0 | 1006 |
| 22 | Chanco INIA | 09-05-2026 05:15 | 11,3 | 49,8 | 0 | 0,8 | 167 | 0 | 1006 |
| 21 | Chanco INIA | 09-05-2026 05:00 | 10,2 | 51,1 | 0 | 0,1 | 190 | 0 | 1006 |
| 20 | Chanco INIA | 09-05-2026 04:45 | 10,4 | 55 | 0 | 0 | 0 | 0 | 1006 |
| 19 | Chanco INIA | 09-05-2026 04:30 | 10,8 | 51,6 | 0 | 0 | 90 | 0 | 1006 |
| 18 | Chanco INIA | 09-05-2026 04:15 | 10,6 | 53,9 | 0 | 0,2 | 114 | 0 | 1006 |
| 17 | Chanco INIA | 09-05-2026 04:00 | 11,3 | 52,8 | 0 | 1,8 | 140 | 0 | 1006 |
| 16 | Chanco INIA | 09-05-2026 03:45 | 10,8 | 53,1 | 0 | 0,3 | 128 | 0 | 1006 |
| 15 | Chanco INIA | 09-05-2026 03:30 | 10,1 | 57 | 0 | 1,3 | 142 | 0 | 1006 |
| 14 | Chanco INIA | 09-05-2026 03:15 | 8,3 | 70,4 | 0 | 0 | 96 | 0 | 1007 |
| 13 | Chanco INIA | 09-05-2026 03:00 | 8,5 | 72,3 | 0 | 0 | 0 | 0 | 1007 |
| 12 | Chanco INIA | 09-05-2026 02:45 | 7,8 | 77,8 | 0 | 0 | 0 | 0 | 1007 |
| 11 | Chanco INIA | 09-05-2026 02:30 | 8,1 | 77,7 | 0 | 0 | 0 | 0 | 1007 |
| 10 | Chanco INIA | 09-05-2026 02:15 | 8,6 | 77,1 | 0 | 0 | 0 | 0 | 1007 |
| 9 | Chanco INIA | 09-05-2026 02:00 | 9,5 | 72,5 | 0 | 0 | 0 | 0 | 1007 |
| 8 | Chanco INIA | 09-05-2026 01:45 | 9,6 | 75,5 | 0 | 0 | 78 | 0 | 1007 |
| 7 | Chanco INIA | 09-05-2026 01:30 | 9,2 | 78 | 0 | 0,1 | 79 | 0 | 1007 |
| 6 | Chanco INIA | 09-05-2026 01:15 | 8,1 | 89,1 | 0 | 0 | 0 | 0 | 1007 |
| 5 | Chanco INIA | 09-05-2026 01:00 | 7,8 | 89,1 | 0 | 0 | 0 | 0 | 1007 |
| 4 | Chanco INIA | 09-05-2026 00:45 | 8,6 | 88,6 | 0 | 0 | 0 | 0 | 1007 |
| 3 | Chanco INIA | 09-05-2026 00:30 | 8,2 | 91,7 | 0 | 0 | 0 | 0 | 1008 |
| 2 | Chanco INIA | 09-05-2026 00:15 | 8,4 | 88,8 | 0 | 0 | 0 | 0 | 1008 |
| 1 | Chanco INIA | 09-05-2026 00:00 | 8,7 | 88,1 | 0 | 0 | 0 | 0 | 1007 |